Probability
16 19 23 32 35 0 0 3 3 0 3 3 0 6 3 3 10 39 39 10 23 45 65 90 97 97 94 94 94 94 90 90 94 97 97 97 94 94 94 94 87 90 94 84 90 90 87 87 84
13 13 13 16 0 0 0 0 3 6 6 19 16 16 19 32 42 55 32 19 39 58 71 81 97 97 97 100 97 97 90 90 94 94 97 94 94 94 94 90 90 87 90 84 90 90 90 87 87
6 10 3 3 0 0 0 3 6 6 23 23 26 35 35 55 58 58 55 45 58 61 77 97 97 97 97 94 94 97 94 94 94 94 94 90 90 90 87 87 87 87 87 87 94 94 94 87 90
3 3 3 0 0 0 0 10 10 19 29 29 26 35 71 65 65 61 61 45 58 65 74 97 97 97 97 97 97 97 97 97 97 97 97 97 94 90 90 90 87 87 87 90 94 90 87 84 84
3 3 0 0 0 0 0 10 10 19 32 35 29 42 74 81 71 65 68 52 48 58 74 94 97 97 97 97 97 97 97 97 97 97 97 97 94 90 90 90 90 90 90 94 90 90 81 84 77
0 0 0 0 0 0 0 10 10 6 26 35 26 42 90 87 77 84 74 58 45 45 74 97 97 97 97 97 97 97 97 97 94 94 97 97 94 94 90 90 90 90 94 90 90 94 90 81 87
0 0 0 0 0 0 3 10 6 10 19 26 26 45 84 87 87 94 81 65 52 52 84 97 97 97 97 97 97 97 97 97 97 97 97 97 94 94 94 90 90 94 90 90 94 90 94 87 87
0 0 0 0 0 0 3 6 10 10 23 42 32 45 74 97 94 97 87 77 65 65 87 81 94 100 100 97 97 97 97 97 97 94 97 97 94 94 90 87 90 87 90 90 77 81 81 90 87
0 0 0 0 0 0 3 3 6 6 39 58 42 55 77 100 94 97 90 90 87 81 90 90 94 94 90 87 94 97 97 97 90 97 87 87 77 68 71 77 84 81 77 74 74 71 74 77 81
0 0 0 0 0 0 3 6 6 10 29 58 87 97 100 100 100 100 97 97 97 97 94 94 97 94 90 90 100 97 94 97 90 90 90 77 87 77 71 77 81 77 68 68 74 77 65 58 55
0 0 0 0 0 0 0 0 3 6 6 35 74 100 100 100 100 97 97 100 100 100 94 97 100 97 94 100 100 100 94 100 97 90 94 94 81 71 71 65 77 81 71 58 65 58 42 35 55
0 0 0 0 0 0 0 0 0 3 13 16 68 100 100 100 100 97 97 100 100 100 100 97 100 100 97 97 100 97 97 100 90 94 84 81 87 74 74 77 65 71 68 74 55 58 52 55 35
0 0 0 0 0 0 0 0 0 6 13 39 81 100 100 100 100 97 94 94 100 100 97 97 97 97 97 100 100 97 94 94 90 94 90 81 81 77 77 77 68 48 58 68 71 55 65 55 48
0 0 0 0 0 0 0 3 0 13 23 52 84 100 100 100 100 100 97 97 100 100 97 97 97 97 97 97 97 97 97 97 84 90 84 84 77 81 77 84 68 58 55 52 55 48 68 55 65
0 0 0 0 0 0 0 3 3 23 26 48 81 97 100 100 100 100 100 100 100 100 97 94 97 97 97 97 97 90 94 94 87 87 97 87 77 81 77 58 65 58 55 71 61 61 61 52 55
0 0 0 0 0 3 0 0 19 26 32 48 71 94 100 100 100 100 100 100 100 100 100 94 90 97 97 97 97 90 94 94 87 90 97 90 84 71 81 71 58 71 58 58 61 58 48 55 55
0 0 0 0 3 6 0 0 26 26 32 45 71 87 100 100 100 97 97 94 94 94 90 90 94 97 94 90 94 94 94 90 84 77 94 90 81 81 77 81 77 71 58 48 29 52 52 48 52
0 0 0 0 3 3 0 3 26 29 32 45 58 81 94 97 97 94 94 94 87 84 90 90 90 94 90 90 94 94 94 87 81 81 90 87 90 84 77 84 87 65 55 65 52 55 55 48 52
0 0 0 0 3 3 3 3 16 32 35 39 58 74 81 94 94 97 94 90 84 84 90 90 90 94 97 87 90 90 94 90 84 71 81 81 84 84 87 65 84 81 68 65 39 52 42 45 52
0 0 0 0 3 3 3 3 19 29 42 42 61 61 81 87 94 90 90 87 84 84 84 90 90 87 94 90 90 90 84 77 74 71 87 84 81 84 68 84 77 77 81 68 68 65 55 32 35
0 0 0 0 3 3 3 3 16 19 29 45 48 58 74 84 94 90 90 84 84 81 84 81 87 87 90 87 84 81 87 77 68 77 77 84 74 84 77 77 74 81 77 71 77 71 52 35 35
0 0 0 0 0 0 0 0 10 19 26 32 45 58 77 84 84 94 90 84 81 81 77 77 87 87 90 81 74 71 81 61 68 71 71 77 74 77 87 81 77 77 55 71 52 32 35 48 32
0 0 0 0 0 0 0 0 3 16 16 26 35 48 74 77 77 94 90 87 81 74 74 81 81 90 94 77 74 77 68 71 58 68 71 77 71 74 77 77 68 77 71 61 55 48 48 35 29
0 0 0 0 0 0 0 0 3 10 19 26 32 52 74 71 68 81 84 84 81 77 77 77 81 84 87 84 74 74 74 71 61 61 68 68 68 74 61 71 77 74 71 77 68 65 55 45 39
0 0 0 0 0 0 0 0 3 19 13 29 42 55 65 74 77 77 77 87 84 84 77 71 77 81 77 77 74 77 71 68 61 61 52 65 58 65 68 61 81 74 81 74 71 65 52 42 52
0 0 0 0 0 0 0 0 13 16 23 35 52 61 68 61 81 77 74 81 81 81 74 74 74 77 77 68 65 68 68 65 52 58 52 55 52 52 68 68 68 68 65 48 71 52 48 58 58
0 0 0 0 0 0 0 6 16 16 23 35 45 65 74 71 77 77 74 68 68 65 68 65 71 68 68 65 61 68 65 55 48 52 52 48 52 42 58 61 61 61 65 65 68 55 58 58 42
0 0 0 0 0 0 0 3 10 26 32 42 55 65 65 68 68 71 71 68 65 68 65 61 58 68 68 65 55 52 55 58 58 58 48 55 48 55 58 55 48 45 45 52 71 52 58 58 58
0 0 0 0 0 0 0 0 6 26 32 48 48 58 68 61 61 68 68 71 71 58 58 61 58 61 65 61 52 48 48 58 58 58 58 55 58 58 58 55 61 52 48 52 61 39 52 55 55
0 0 0 0 0 0 0 3 10 26 45 42 52 61 58 65 68 65 68 74 65 61 58 55 48 52 42 39 39 42 52 55 52 55 52 55 55 52 58 52 52 45 45 58 58 55 45 52 48
Height
5895 5895 5895 5896 5896 5897 5896 5895 5894 5892 5891 5890 5889 5888 5888 5888 5888 5890 5888 5886 5887 5887 5888 5888 5889 5890 5891 5891 5891 5891 5892 5892 5892 5892 5893 5893 5894 5895 5895 5896 5896 5897 5897 5898 5898 5898 5898 5899 5899
5896 5896 5896 5897 5897 5898 5897 5896 5894 5893 5892 5891 5890 5889 5888 5888 5888 5888 5887 5887 5888 5888 5888 5889 5890 5891 5892 5892 5892 5892 5893 5893 5893 5894 5894 5894 5895 5896 5896 5897 5897 5898 5898 5899 5899 5899 5900 5900 5900
5896 5896 5897 5897 5898 5898 5898 5896 5895 5893 5892 5891 5890 5889 5889 5888 5888 5888 5888 5888 5888 5889 5889 5890 5891 5892 5892 5893 5893 5893 5894 5894 5894 5895 5895 5895 5896 5897 5897 5898 5899 5899 5899 5900 5900 5901 5901 5901 5901
5895 5896 5897 5898 5898 5898 5897 5896 5895 5894 5893 5892 5891 5890 5889 5889 5888 5888 5888 5888 5888 5889 5890 5890 5891 5892 5893 5893 5894 5894 5894 5894 5895 5896 5896 5897 5897 5898 5898 5899 5899 5900 5900 5901 5901 5902 5902 5902 5902
5895 5896 5897 5897 5897 5897 5896 5896 5895 5894 5893 5892 5891 5891 5890 5889 5889 5888 5888 5888 5889 5889 5890 5891 5892 5893 5893 5894 5894 5894 5895 5895 5896 5896 5897 5897 5898 5898 5899 5900 5900 5901 5901 5901 5902 5902 5903 5903 5903
5895 5896 5897 5898 5897 5897 5896 5895 5895 5894 5893 5892 5892 5891 5890 5890 5889 5889 5889 5889 5889 5890 5890 5891 5892 5893 5893 5894 5895 5895 5895 5896 5896 5897 5897 5898 5899 5899 5899 5900 5901 5901 5902 5902 5903 5903 5903 5904 5904
5895 5895 5896 5897 5897 5896 5896 5895 5895 5894 5893 5892 5892 5891 5890 5890 5889 5889 5889 5889 5889 5890 5890 5891 5892 5893 5893 5894 5894 5895 5896 5896 5897 5897 5898 5898 5899 5899 5900 5901 5901 5902 5902 5903 5903 5903 5904 5904 5904
5892 5894 5895 5895 5896 5896 5895 5894 5894 5894 5893 5893 5892 5891 5891 5890 5889 5889 5889 5889 5889 5890 5890 5891 5891 5892 5893 5894 5894 5895 5896 5896 5897 5898 5898 5899 5899 5900 5900 5901 5901 5902 5902 5903 5903 5904 5904 5905 5905
5890 5893 5893 5894 5894 5894 5894 5894 5894 5893 5893 5892 5892 5891 5891 5889 5889 5889 5888 5889 5889 5889 5890 5890 5891 5892 5892 5893 5894 5895 5895 5896 5897 5898 5898 5899 5899 5900 5900 5901 5901 5902 5903 5903 5904 5904 5905 5905 5905
5888 5890 5891 5891 5892 5892 5892 5893 5893 5892 5892 5892 5891 5890 5890 5889 5889 5888 5888 5888 5888 5889 5889 5890 5890 5891 5892 5892 5893 5894 5895 5896 5896 5897 5898 5899 5899 5900 5900 5901 5902 5902 5903 5903 5904 5904 5905 5905 5906
5886 5887 5887 5888 5889 5890 5890 5891 5891 5891 5891 5891 5890 5890 5889 5889 5888 5888 5888 5888 5888 5888 5888 5889 5889 5890 5891 5892 5892 5893 5894 5895 5896 5897 5897 5898 5899 5900 5900 5901 5902 5902 5903 5903 5903 5904 5905 5905 5906
5883 5884 5884 5885 5887 5888 5888 5889 5890 5890 5890 5890 5889 5889 5888 5888 5888 5887 5887 5887 5887 5887 5887 5888 5888 5889 5890 5891 5891 5892 5893 5894 5895 5896 5897 5898 5899 5899 5900 5901 5901 5902 5902 5903 5904 5904 5905 5905 5905
5880 5880 5881 5883 5884 5885 5886 5887 5888 5888 5888 5888 5888 5887 5887 5887 5886 5886 5886 5886 5886 5886 5886 5887 5887 5888 5888 5889 5890 5891 5892 5893 5894 5895 5896 5897 5898 5899 5899 5900 5901 5901 5902 5903 5903 5904 5904 5905 5905
5876 5877 5879 5880 5882 5883 5884 5885 5886 5887 5887 5886 5886 5886 5886 5885 5885 5885 5885 5885 5885 5885 5885 5885 5886 5886 5887 5888 5889 5890 5891 5892 5893 5894 5895 5896 5897 5898 5899 5899 5900 5901 5901 5902 5903 5903 5904 5904 5905
5873 5874 5876 5877 5878 5880 5882 5883 5884 5884 5885 5885 5884 5884 5884 5884 5883 5883 5883 5883 5883 5883 5883 5883 5884 5885 5886 5886 5887 5888 5889 5891 5892 5893 5894 5894 5896 5897 5898 5898 5899 5900 5901 5901 5902 5903 5903 5904 5904
5869 5871 5873 5874 5875 5877 5881 5882 5881 5881 5882 5883 5883 5883 5882 5882 5882 5881 5881 5881 5881 5881 5881 5881 5882 5883 5884 5885 5886 5887 5888 5889 5890 5891 5892 5893 5894 5895 5896 5897 5898 5899 5900 5900 5901 5902 5902 5903 5904
5865 5867 5869 5870 5871 5873 5876 5878 5878 5879 5880 5880 5880 5880 5880 5880 5880 5879 5879 5879 5878 5878 5878 5879 5880 5881 5882 5882 5884 5885 5886 5887 5888 5889 5890 5891 5892 5893 5894 5895 5896 5897 5898 5899 5900 5901 5902 5902 5903
5861 5864 5865 5866 5867 5870 5872 5874 5875 5876 5877 5877 5878 5878 5878 5878 5878 5877 5876 5876 5875 5875 5876 5877 5878 5879 5880 5880 5881 5882 5883 5884 5885 5886 5888 5889 5890 5891 5892 5893 5894 5896 5897 5898 5899 5900 5900 5901 5902
5856 5859 5860 5862 5863 5866 5868 5870 5871 5872 5873 5874 5875 5875 5875 5875 5875 5874 5874 5873 5873 5872 5873 5874 5875 5876 5877 5878 5879 5880 5881 5882 5883 5883 5885 5886 5888 5889 5890 5892 5893 5894 5895 5896 5897 5898 5899 5900 5901
5851 5854 5856 5857 5859 5862 5864 5866 5868 5869 5870 5871 5871 5872 5872 5872 5872 5871 5871 5871 5871 5871 5871 5871 5872 5874 5874 5875 5876 5877 5878 5878 5879 5880 5882 5883 5885 5886 5888 5889 5891 5892 5893 5894 5895 5896 5897 5898 5899
5845 5849 5851 5852 5855 5858 5861 5863 5864 5865 5866 5867 5868 5868 5869 5869 5869 5869 5869 5869 5869 5868 5868 5869 5869 5870 5871 5872 5873 5873 5874 5875 5876 5877 5878 5880 5881 5883 5884 5886 5888 5889 5890 5892 5893 5895 5896 5897 5898
5840 5843 5845 5848 5851 5854 5857 5861 5861 5861 5863 5864 5865 5865 5866 5866 5866 5866 5866 5866 5866 5866 5865 5865 5866 5867 5868 5868 5869 5870 5871 5872 5873 5873 5875 5876 5878 5879 5881 5883 5884 5886 5888 5889 5891 5892 5894 5895 5896
5834 5837 5841 5844 5847 5850 5853 5856 5859 5858 5859 5860 5861 5862 5862 5863 5863 5863 5863 5863 5863 5862 5862 5863 5863 5863 5864 5865 5866 5866 5867 5868 5869 5870 5871 5872 5874 5876 5878 5880 5881 5883 5885 5887 5888 5890 5891 5893 5894
5828 5832 5836 5839 5843 5846 5849 5852 5855 5854 5855 5856 5857 5857 5858 5859 5859 5860 5860 5860 5860 5859 5859 5859 5860 5860 5860 5861 5861 5862 5863 5864 5865 5865 5867 5868 5870 5872 5874 5876 5878 5880 5882 5884 5885 5887 5888 5890 5891
5823 5828 5832 5835 5838 5842 5844 5846 5850 5849 5851 5852 5852 5853 5854 5855 5855 5856 5856 5856 5856 5856 5856 5856 5856 5856 5856 5857 5857 5857 5858 5859 5860 5862 5863 5865 5866 5868 5871 5872 5874 5876 5878 5880 5882 5884 5885 5886 5888
5818 5824 5830 5834 5836 5839 5839 5841 5844 5845 5846 5847 5848 5849 5850 5851 5851 5852 5852 5852 5852 5852 5852 5852 5852 5853 5853 5853 5853 5853 5854 5855 5857 5858 5859 5861 5862 5865 5867 5869 5870 5873 5874 5876 5878 5880 5882 5883 5884
5813 5818 5825 5829 5832 5835 5836 5837 5839 5840 5842 5843 5844 5845 5846 5847 5848 5848 5848 5849 5849 5849 5848 5849 5848 5848 5848 5849 5849 5850 5851 5852 5853 5854 5856 5857 5859 5861 5863 5865 5867 5869 5870 5872 5874 5876 5878 5879 5881
5808 5813 5817 5822 5826 5831 5833 5833 5835 5836 5838 5839 5840 5841 5842 5843 5844 5845 5845 5845 5845 5845 5845 5845 5845 5844 5845 5845 5845 5846 5847 5848 5849 5851 5852 5853 5855 5857 5859 5860 5862 5864 5866 5868 5870 5872 5874 5875 5877
5802 5807 5812 5818 5822 5828 5830 5833 5831 5832 5834 5835 5836 5837 5838 5839 5840 5841 5841 5841 5841 5842 5842 5842 5841 5841 5841 5841 5841 5842 5843 5844 5845 5847 5848 5849 5851 5853 5855 5857 5858 5860 5861 5863 5865 5867 5869 5871 5872
5798 5803 5808 5813 5817 5821 5827 5830 5826 5828 5830 5831 5832 5834 5835 5836 5836 5837 5837 5837 5837 5838 5838 5838 5838 5837 5837 5837 5837 5838 5839 5840 5842 5843 5844 5846 5847 5849 5851 5852 5854 5855 5857 5858 5860 5862 5864 5866 5867
Wind_Speed
8 9 9 9 11 10 8 8 8 8 9 8 8 8 8 8 7 7 7 7 7 8 9 9 8 8 9 10 11 12 13 13 13 13 13 13 12 12 11 10 10 9 9 8 8 8 8 7 7
6 7 8 9 9 8 6 7 7 7 7 8 7 7 7 7 6 6 6 6 7 8 8 9 8 8 8 9 10 11 12 12 13 12 12 12 12 11 10 10 9 9 8 8 8 8 7 7 7
5 6 7 8 7 5 5 6 6 6 7 7 7 6 7 7 6 5 5 6 6 7 7 8 8 8 8 9 10 11 11 12 12 12 11 11 11 10 10 9 9 9 9 8 7 7 7 7 7
4 5 6 6 5 5 4 5 5 6 6 6 6 6 6 6 6 5 4 5 5 5 6 7 7 8 9 9 10 10 11 11 11 11 11 11 11 10 9 9 8 8 8 8 7 7 7 7 6
2 4 4 4 3 3 4 4 4 5 5 5 5 6 6 6 6 4 4 4 5 5 5 7 7 7 8 9 9 10 10 10 10 10 10 11 11 10 9 8 8 7 7 7 7 7 6 6 6
2 2 2 2 2 3 3 3 4 4 3 4 4 4 5 6 5 5 4 4 4 4 5 6 7 7 8 9 9 9 9 10 10 10 10 10 9 9 8 8 7 7 7 6 6 6 6 5 5
3 2 1 2 2 3 2 2 3 3 2 3 3 4 4 5 5 4 4 3 3 4 5 5 6 7 8 8 9 9 9 9 9 9 9 9 8 8 8 7 7 7 6 6 5 5 5 5 4
5 4 3 3 3 2 2 2 2 3 3 2 2 3 4 4 4 4 3 2 2 3 4 5 6 7 7 8 8 8 8 8 8 8 9 9 9 8 7 7 6 6 6 5 5 5 5 5 4
7 6 5 5 5 3 2 1 1 2 2 2 2 2 3 4 4 3 3 2 1 2 3 5 6 7 7 8 8 8 9 8 8 8 8 9 8 8 7 7 6 6 6 5 5 5 4 4 4
9 8 8 7 6 4 3 2 1 2 2 2 2 2 2 2 3 3 2 1 1 2 3 4 6 7 8 8 8 8 9 8 8 8 8 8 8 8 7 6 6 6 5 5 5 5 4 4 4
10 10 10 8 7 5 4 3 2 3 4 3 4 3 3 2 2 2 2 1 1 2 3 4 6 7 7 8 8 8 8 8 8 7 7 8 8 7 7 6 6 6 5 5 5 5 5 4 4
12 12 12 10 8 6 5 4 4 4 5 5 5 4 4 3 3 2 2 1 2 3 4 5 6 7 7 8 9 9 8 8 8 8 7 8 8 8 7 6 6 6 6 5 5 5 5 5 5
14 14 13 12 10 8 7 6 6 6 6 6 7 6 6 5 5 4 3 3 3 4 5 5 7 7 8 9 9 9 9 9 8 8 8 9 9 9 8 7 7 7 6 6 5 5 5 5 4
16 16 15 13 12 10 9 8 8 8 7 7 8 8 7 6 6 6 5 5 5 5 6 6 7 8 9 9 9 9 10 10 9 9 9 10 10 10 9 8 7 7 7 7 6 6 6 6 5
18 17 17 16 14 12 10 9 9 9 8 8 8 8 8 8 7 7 6 6 7 7 7 7 8 9 9 9 10 10 10 11 10 10 10 11 11 11 10 9 8 8 8 8 7 7 6 6 6
19 19 18 17 16 14 12 11 11 11 9 9 9 9 9 8 8 8 7 7 9 9 9 9 9 10 10 10 11 10 11 11 11 11 12 12 13 12 11 10 9 9 9 9 9 8 7 7 7
21 19 19 19 17 16 14 13 13 12 11 11 10 10 10 10 10 10 10 9 9 8 9 9 9 10 10 11 12 12 12 12 12 12 12 12 13 13 12 11 11 10 9 10 10 9 8 8 7
21 20 20 20 19 17 15 14 14 13 13 13 12 12 11 11 11 12 11 10 10 9 9 10 10 10 10 11 13 13 13 13 13 14 13 13 13 13 12 12 12 12 11 11 11 10 9 9 8
23 22 21 22 20 18 17 16 15 14 14 14 13 12 12 12 13 13 12 11 10 11 11 10 11 11 11 12 13 14 14 15 15 15 15 14 15 14 14 13 13 12 12 11 12 11 10 9 9
24 23 23 23 21 19 18 17 16 15 15 15 15 14 14 14 14 14 13 11 10 10 11 10 10 11 12 13 14 15 16 17 17 17 16 16 16 16 15 14 14 14 13 13 13 12 12 10 10
25 24 24 23 21 20 18 17 17 16 16 16 15 14 14 14 13 12 12 11 11 11 11 12 12 12 13 13 14 15 16 17 18 17 17 17 17 17 17 16 15 14 14 14 14 14 14 12 11
26 26 25 23 21 20 19 17 18 17 16 16 16 15 14 14 13 13 12 11 12 12 13 13 13 13 14 14 14 15 16 18 19 20 19 19 19 18 18 17 16 15 15 15 15 15 15 14 13
27 27 25 23 22 21 20 18 18 18 17 16 16 16 15 14 14 14 13 13 13 13 13 13 14 15 16 17 17 17 18 18 19 21 22 22 21 19 18 17 17 16 15 15 15 16 15 15 15
28 27 26 24 23 23 21 19 18 18 17 16 16 16 16 15 15 15 14 14 14 14 14 14 15 15 15 16 16 17 19 19 19 19 20 21 21 21 20 18 17 16 15 16 16 16 17 16 16
29 27 26 25 24 23 23 20 20 19 17 17 17 16 16 15 15 15 15 14 14 15 15 15 16 16 15 16 16 16 17 19 19 19 20 21 21 20 20 19 18 17 16 17 17 18 17 17 17
29 27 25 23 21 21 23 21 20 17 17 16 16 16 15 15 14 15 15 14 14 14 15 15 15 16 15 15 15 15 16 17 19 20 20 20 20 21 21 20 19 18 18 19 19 19 19 18 18
29 28 26 24 22 20 21 20 18 16 16 16 15 15 15 14 13 13 13 13 14 14 14 14 14 14 14 15 15 15 15 16 17 19 20 20 20 20 20 20 20 19 19 20 20 21 20 19 19
29 28 29 26 23 20 20 18 17 16 16 16 15 15 15 14 14 14 13 13 14 14 14 14 14 14 15 15 15 16 15 16 17 17 19 20 19 19 20 19 19 19 20 21 21 22 21 21 21
30 30 28 26 24 19 17 17 17 16 15 15 14 13 13 13 13 14 14 14 14 14 15 15 14 15 15 15 15 15 15 15 16 17 18 18 19 18 19 19 19 19 20 21 21 22 23 23 22
28 28 27 26 24 22 17 17 17 16 16 16 15 14 14 13 14 15 15 15 15 15 14 14 14 14 14 14 14 15 15 15 15 15 15 16 18 19 19 19 19 19 20 21 22 23 23 23 22
Wind_Direction
50 52 53 54 55 59 60 55 59 57 58 64 72 74 76 79 88 95 99 109 116 120 122 122 126 129 131 133 129 125 121 118 116 113 112 110 108 107 105 102 102 102 101 99 97 95 90 88 92
45 48 51 50 56 56 54 57 60 55 56 61 69 72 76 75 81 96 102 108 119 126 128 129 130 134 138 139 136 132 127 123 119 117 116 115 113 111 109 107 106 103 102 103 102 99 95 92 93
39 44 46 48 56 65 58 55 54 54 55 57 63 65 71 71 73 88 105 106 115 126 132 135 138 143 143 142 140 139 135 129 125 122 121 120 117 115 114 111 110 108 107 107 104 104 101 99 99
31 40 42 48 50 52 53 50 46 48 49 54 59 61 64 65 66 76 100 107 113 128 139 142 144 149 149 147 143 140 139 135 131 129 127 124 120 118 117 115 114 114 112 109 107 105 102 102 104
13 31 35 39 35 41 42 40 40 43 40 50 58 60 58 62 63 73 92 107 115 127 141 145 149 155 155 153 147 143 142 140 138 138 134 130 126 124 122 120 118 118 117 113 111 110 108 108 108
322 11 27 12 16 28 20 28 36 31 35 38 52 56 56 62 63 72 87 101 116 132 143 151 158 162 162 158 152 148 147 145 143 141 138 137 135 130 128 125 120 120 120 119 117 118 116 118 116
285 305 297 307 338 0 4 4 17 16 7 26 42 53 60 63 62 68 77 96 120 144 158 164 165 166 165 164 159 156 154 151 148 146 144 144 145 139 134 132 128 127 126 127 126 126 127 130 128
272 281 288 300 308 312 330 341 358 357 356 4 28 42 50 53 56 62 67 86 124 155 173 177 178 176 174 172 168 164 162 159 157 155 152 155 154 148 141 138 136 135 136 138 138 139 137 137 136
265 266 267 281 291 289 297 280 314 331 327 325 360 24 44 44 50 55 56 74 129 161 175 188 193 188 184 183 180 175 172 169 165 162 162 163 159 155 152 148 144 145 145 147 149 151 150 145 141
257 257 258 268 282 285 275 255 278 292 297 298 314 323 350 23 35 44 43 72 165 188 189 198 196 197 195 192 189 186 183 183 178 173 173 172 169 165 163 161 156 155 155 155 155 159 161 157 157
252 253 261 268 275 276 264 257 265 275 275 282 291 302 299 322 353 6 9 342 229 215 206 207 204 207 205 202 198 194 192 193 190 186 184 182 178 175 175 175 173 169 168 164 162 163 168 171 174
250 254 260 264 267 265 257 252 252 260 261 273 284 287 282 287 313 319 308 303 261 233 225 225 217 214 213 208 205 203 200 201 197 194 193 192 188 186 186 186 185 181 180 175 172 176 179 180 182
248 253 257 260 263 259 253 251 250 252 263 273 277 277 277 279 293 297 286 272 274 253 241 235 226 219 216 213 210 207 207 209 208 205 203 201 198 197 196 196 195 194 193 190 189 189 192 192 190
248 252 255 258 258 255 251 249 250 254 266 270 272 273 278 279 288 292 282 266 265 258 250 243 234 225 220 217 211 210 212 215 215 214 213 210 207 206 205 204 205 204 204 204 204 205 206 205 204
247 250 253 256 257 254 249 246 248 254 261 265 270 272 278 281 284 283 276 266 262 259 253 246 239 233 227 223 219 220 220 222 223 223 220 216 214 213 212 212 214 213 212 212 213 215 215 212 211
246 248 250 253 254 250 246 247 251 254 257 260 262 267 274 277 275 275 271 267 264 263 256 249 240 235 235 232 227 226 226 228 231 232 225 220 218 219 219 217 218 219 217 216 217 219 217 216 216
244 247 247 252 252 249 245 244 251 253 255 256 258 262 268 273 274 274 270 270 268 264 256 250 243 238 240 241 237 232 232 234 233 233 231 226 223 222 224 224 223 220 218 218 220 222 220 218 218
243 244 245 249 250 247 244 244 249 251 253 255 257 261 266 271 272 273 272 271 269 260 251 249 248 245 247 243 239 237 237 237 236 235 235 232 228 228 227 226 225 224 223 222 224 222 221 218 215
237 238 241 244 246 244 242 244 247 249 251 253 254 259 266 268 269 274 273 270 270 259 247 248 246 246 246 245 242 239 239 238 240 240 238 236 233 232 231 227 229 230 229 226 226 222 221 218 215
235 235 239 243 243 241 241 242 246 246 249 249 252 257 263 267 271 272 273 274 270 263 257 254 251 248 248 248 247 243 242 242 243 242 239 236 235 234 235 233 232 231 229 228 228 225 223 221 218
232 232 235 240 243 242 241 244 247 246 246 248 253 259 263 266 269 268 266 269 269 264 262 256 254 252 251 252 255 250 245 243 243 242 238 236 235 235 235 235 232 230 228 229 228 226 225 225 224
230 230 233 236 237 239 236 238 248 246 246 247 251 257 261 263 264 263 263 267 271 267 262 258 256 257 254 254 257 257 252 248 244 242 241 241 239 237 236 235 232 228 230 231 230 228 226 225 226
227 228 230 233 235 237 239 234 245 247 245 247 251 254 258 259 260 261 262 265 270 268 261 260 261 265 259 256 258 257 254 249 246 242 242 242 240 237 236 237 234 233 233 233 233 231 229 229 230
224 225 227 231 233 236 237 235 239 246 246 250 252 253 256 256 258 258 259 265 269 267 262 261 262 263 261 260 262 260 253 251 249 244 241 240 238 235 233 233 232 233 234 236 237 234 232 232 232
222 222 224 228 232 233 237 237 240 245 248 251 252 251 252 256 259 257 256 260 265 264 262 261 261 262 263 262 263 260 255 252 247 242 240 239 238 236 232 231 233 233 235 238 237 236 235 236 235
222 220 220 225 231 234 241 240 244 246 247 248 249 250 251 255 257 254 254 255 261 264 265 264 263 263 263 262 261 257 253 251 248 244 239 239 237 234 233 235 235 234 236 238 236 236 237 239 238
220 218 219 223 225 228 241 243 245 243 242 243 245 249 249 252 254 253 252 255 261 262 261 262 265 264 264 261 259 256 251 252 251 245 240 240 237 236 236 237 237 237 238 238 236 236 237 240 240
219 219 218 219 223 227 239 244 244 240 238 240 246 250 249 249 250 253 255 258 260 260 260 262 265 265 265 263 260 256 251 251 250 247 243 239 238 238 235 235 237 238 238 238 238 236 236 238 240
218 217 219 221 223 222 235 243 240 237 236 238 244 246 245 245 248 251 254 256 257 260 261 262 264 267 266 264 259 252 248 249 246 245 243 241 239 237 237 239 239 240 240 237 237 237 237 239 241
218 219 219 221 226 221 223 241 239 235 237 238 242 246 244 245 251 254 259 259 257 259 262 263 267 269 267 260 253 249 246 246 243 243 244 244 241 238 238 240 239 241 241 239 237 237 237 239 241